DW9918 Weather Reports


Display with metric or nautical units.
time (UTC)temp
F
wind
direction
speed
MPH
gust
MPH
rain 1hr
in
rain 24hr
in
rain mn
in
humidity
%
barometer
mb
20260901070139 79 257 2.0 4.0 0.00 0.00 0.00 71 1017.2
20260901070006 78 274 2.0 4.0 0.00 0.00 0.00 69 1017.1
20260901065152 77 267 2.0 4.0 0.00 0.00 0.00 71 1017.1
20260901064510 76 259 3.0 5.0 0.00 0.00 0.00 71 1017.1
20260901064147 77 261 3.0 5.0 0.00 0.00 0.00 71 1017.2
20260901063129 76 278 1.0 4.0 0.00 0.00 0.00 74 1017.1
20260901063011 75 263 1.0 4.0 0.00 0.00 0.00 74 1017.1
20260901062130 74 258 2.0 4.0 0.00 0.00 0.00 75 1017.2
20260901061504 73 244 2.0 4.0 0.00 0.00 0.00 75 1017.1
20260901061142 74 260 3.0 4.0 0.00 0.00 0.00 75 1017.2
20260901060157 73 226 0.0 2.0 0.00 0.00 0.00 76 1017.1
20260901060010 72 226 0.0 2.0 0.00 0.00 0.00 76 1017.1
20260901055132 72 250 0.0 2.0 0.00 0.00 0.00 77 1017.0
20260901054524 71 270 0.0 2.0 0.00 0.00 0.00 77 1016.9
20260901054155 72 259 2.0 2.0 0.00 0.00 0.00 77 1017.1
20260901053137 71 233 0.0 0.0 0.00 0.00 0.00 78 1016.9
20260901053010 70 233 0.0 0.0 0.00 0.00 0.00 77 1016.8
20260901052144 70 233 0.0 1.0 0.00 0.00 0.00 77 1016.8
20260901051507 69 233 0.0 1.0 0.00 0.00 0.00 77 1016.6
20260901051126 70 233 0.0 1.0 0.00 0.00 0.00 77 1016.7
20260901050131 70 241 0.0 1.0 0.00 0.00 0.00 77 1016.6
20260901050013 69 241 0.0 1.0 0.00 0.00 0.00 77 1016.4
20260901045136 70 39 0.0 0.0 0.00 0.00 0.00 77 1016.5
20260901044514 69 39 0.0 0.0 0.00 0.00 0.00 76 1016.3
20260901044144 71 39 0.0 1.0 0.00 0.00 0.00 76 1016.5
20260901043137 71 32 1.0 3.0 0.00 0.00 0.00 76 1016.4
20260901043011 70 32 0.0 3.0 0.00 0.00 0.00 76 1016.3
20260901042155 71 214 1.0 2.0 0.00 0.00 0.00 75 1016.3
20260901041512 70 201 1.0 1.0 0.00 0.00 0.00 75 1016.1
20260901041125 71 137 0.0 0.0 0.00 0.00 0.00 75 1016.3
20260901040127 72 206 0.0 2.0 0.00 0.00 0.00 74 1016.2
20260901040012 71 206 0.0 2.0 0.00 0.00 0.00 73 1016.1
20260901035142 72 220 1.0 2.0 0.00 0.00 0.00 73 1016.1
20260901034520 72 229 0.0 1.0 0.00 0.00 0.00 72 1015.9
20260901034137 72 229 0.0 2.0 0.00 0.00 0.00 73 1016.1
20260901033126 72 232 0.0 0.0 0.00 0.00 0.00 73 1015.9
20260901033016 71 242 0.0 0.0 0.00 0.00 0.00 73 1015.8
20260901032156 72 256 0.0 0.0 0.00 0.00 0.00 73 1015.9
20260901031522 71 271 0.0 0.0 0.00 0.00 0.00 74 1015.8
20260901031143 71 271 0.0 2.0 0.00 0.00 0.00 75 1015.9
20260901030138 72 222 2.0 3.0 0.00 0.00 0.00 74 1015.7
20260901030016 71 227 2.0 3.0 0.00 0.00 0.00 73 1015.6
20260901025152 71 247 2.0 4.0 0.00 0.00 0.00 75 1015.7
20260901024517 71 231 2.0 4.0 0.00 0.00 0.00 74 1015.6
20260901024133 72 240 3.0 4.0 0.00 0.00 0.00 74 1015.7
20260901023023 70 281 2.0 3.0 0.00 0.00 0.00 75 1015.7
20260901022135 71 256 3.0 3.0 0.00 0.00 0.00 74 1015.7
20260901021518 71 252 0.0 3.0 0.00 0.00 0.00 74 1015.7
20260901021146 72 249 0.0 3.0 0.00 0.00 0.00 73 1015.6
20260901020141 72 227 0.0 1.0 0.00 0.00 0.00 73 1015.6
20260901020021 71 227 0.0 1.0 0.00 0.00 0.00 73 1015.6
20260901015126 72 203 0.0 2.0 0.00 0.00 0.00 73 1015.6
20260901014518 72 219 0.0 3.0 0.00 0.00 0.00 72 1015.6
20260901014135 72 238 2.0 3.0 0.00 0.00 0.00 72 1015.6
20260901013147 72 240 0.0 1.0 0.00 0.00 0.00 72 1015.5
20260901013034 72 231 1.0 1.0 0.00 0.00 0.00 71 1015.6
20260901012139 73 140 0.0 1.0 0.00 0.00 0.00 71 1015.5
20260901011534 73 232 0.0 1.0 0.00 0.00 0.00 69 1015.5
20260901011126 73 233 0.0 1.0 0.00 0.00 0.00 70 1015.5
20260901010130 73 225 0.0 0.0 0.00 0.00 0.00 69 1015.3
20260901010024 73 225 0.0 0.0 0.00 0.00 0.00 69 1015.3
20260901005222 74 155 0.0 0.0 0.00 0.00 0.00 69 1015.3
20260901004527 73 148 0.0 2.0 0.00 0.00 0.00 68 1015.2
20260901004129 74 162 0.0 1.0 0.00 0.00 0.00 68 1015.2
20260901003203 74 165 0.0 1.0 0.00 0.00 0.00 69 1015.2
20260901003003 73 169 0.0 1.0 0.00 0.00 0.00 68 1015.1
20260901002126 74 200 0.0 1.0 0.00 0.00 0.00 69 1015.2
20260901001507 73 215 0.0 1.0 0.00 0.00 0.00 68 1015.2
20260901001133 74 215 0.0 1.0 0.00 0.00 0.00 68 1015.1
20260901000130 75 158 0.0 1.0 0.00 0.00 0.00 67 1015.1
20260901000018 75 158 0.0 1.0 0.00 0.00 0.00 66 1015.0
20260831235130 75 158 0.0 2.0 0.00 0.00 0.00 66 1015.0
20260831234515 75 148 1.0 2.0 0.00 0.00 0.00 66 1015.1
20260831234143 75 102 0.0 1.0 0.00 0.00 0.00 67 1015.1
20260831233128 75 154 0.0 2.0 0.00 0.00 0.00 67 1014.9
20260831233009 74 125 1.0 2.0 0.00 0.00 0.00 67 1014.8
20260831232130 75 101 1.0 1.0 0.00 0.00 0.00 67 1014.8
20260831231507 76 129 0.0 1.0 0.00 0.00 0.00 64 1014.6
20260831231128 76 134 1.0 2.0 0.00 0.00 0.00 65 1014.8
20260831230130 76 158 0.0 2.0 0.00 0.00 0.00 65 1014.7
20260831230012 75 144 0.0 2.0 0.00 0.00 0.00 65 1014.5
20260831225202 76 153 0.0 1.0 0.00 0.00 0.00 65 1014.6
20260831224504 76 148 0.0 1.0 0.00 0.00 0.00 65 1014.5
20260831224129 76 171 0.0 1.0 0.00 0.00 0.00 65 1014.5
20260831223131 77 167 0.0 1.0 0.00 0.00 0.00 64 1014.5
20260831223024 76 166 0.0 1.0 0.00 0.00 0.00 64 1014.4
20260831222137 77 155 0.0 1.0 0.00 0.00 0.00 64 1014.5
20260831221517 77 142 0.0 1.0 0.00 0.00 0.00 63 1014.4
20260831220135 78 173 1.0 2.0 0.00 0.00 0.00 63 1014.4
20260831220013 77 158 1.0 2.0 0.00 0.00 0.00 63 1014.3
20260831215139 78 139 0.0 2.0 0.00 0.00 0.00 63 1014.4
20260831214517 77 115 1.0 3.0 0.00 0.00 0.00 63 1014.2
20260831214131 78 162 1.0 3.0 0.00 0.00 0.00 64 1014.3
20260831213132 78 164 1.0 2.0 0.00 0.00 0.00 64 1014.2
20260831213004 77 136 0.0 2.0 0.00 0.00 0.00 63 1014.2
20260831212136 78 157 0.0 1.0 0.00 0.00 0.00 64 1014.2
20260831211511 77 146 0.0 2.0 0.00 0.00 0.00 63 1014.0
20260831211137 78 158 1.0 2.0 0.00 0.00 0.00 64 1014.1
20260831210150 78 153 0.0 2.0 0.00 0.00 0.00 63 1014.1
20260831210023 78 124 0.0 2.0 0.00 0.00 0.00 63 1013.9
20260831205129 78 152 1.0 3.0 0.00 0.00 0.00 64 1013.8
20260831204524 77 135 1.0 3.0 0.00 0.00 0.00 65 1013.6
20260831204132 78 127 0.0 3.0 0.00 0.00 0.00 65 1013.8
20260831203154 78 213 1.0 3.0 0.00 0.00 0.00 66 1013.5
20260831203015 78 191 1.0 3.0 0.00 0.00 0.00 65 1013.4
20260831202139 79 222 1.0 3.0 0.00 0.00 0.00 66 1013.5
20260831201516 78 158 1.0 4.0 0.00 0.00 0.00 67 1013.4
20260831201203 79 145 2.0 4.0 0.00 0.00 0.00 68 1013.6
20260831200144 79 162 0.0 4.0 0.00 0.00 0.00 68 1013.6
20260831200010 78 182 0.0 4.0 0.00 0.00 0.00 68 1013.4
20260831195125 79 145 1.0 4.0 0.00 0.00 0.00 69 1013.5
20260831194504 79 140 2.0 4.0 0.00 0.00 0.00 69 1013.3
20260831194129 79 162 0.0 4.0 0.00 0.00 0.00 69 1013.6
20260831193124 79 131 1.0 4.0 0.00 0.00 0.00 71 1013.6
20260831193029 79 133 1.0 4.0 0.00 0.00 0.00 71 1013.4
20260831192137 79 165 1.0 4.0 0.00 0.00 0.00 71 1013.5
20260831191524 79 106 0.0 3.0 0.00 0.00 0.00 71 1013.3
20260831191132 80 133 1.0 3.0 0.00 0.00 0.00 72 1013.5
20260831190139 80 103 1.0 4.0 0.00 0.00 0.00 71 1013.4
20260831190032 79 97 1.0 4.0 0.00 0.00 0.00 71 1013.3
20260831185134 80 158 1.0 4.0 0.00 0.00 0.00 71 1013.3
20260831184517 80 110 1.0 4.0 0.00 0.00 0.00 71 1013.1
20260831184140 80 127 1.0 4.0 0.00 0.00 0.00 71 1013.3
20260831183150 81 160 1.0 5.0 0.00 0.00 0.00 72 1013.2
20260831183012 80 170 1.0 5.0 0.00 0.00 0.00 71 1013.0
20260831182141 81 110 1.0 5.0 0.00 0.00 0.00 72 1013.1
20260831181510 80 142 2.0 5.0 0.00 0.00 0.00 71 1013.1
20260831181139 81 98 2.0 4.0 0.00 0.00 0.00 71 1013.1
20260831180135 82 158 1.0 2.0 0.00 0.00 0.00 70 1013.1
20260831180032 81 77 0.0 2.0 0.00 0.00 0.00 69 1013.0
20260831175126 82 93 2.0 7.0 0.00 0.00 0.00 68 1013.1
20260831174530 82 102 4.0 8.0 0.00 0.00 0.00 67 1013.0
20260831174138 83 117 4.0 8.0 0.00 0.00 0.00 67 1013.1
20260831173140 83 107 4.0 13.0 0.00 0.00 0.00 65 1013.1
20260831173026 83 94 5.0 13.0 0.00 0.00 0.00 64 1013.0
20260831172133 84 163 5.0 9.0 0.00 0.00 0.00 63 1013.1
20260831171518 84 135 4.0 10.0 0.00 0.00 0.00 62 1013.2
20260831171154 84 100 4.0 10.0 0.00 0.00 0.00 62 1013.2
20260831170147 85 78 5.0 10.0 0.00 0.00 0.00 61 1013.3
20260831170015 84 122 4.0 10.0 0.00 0.00 0.00 60 1013.2
20260831165138 85 107 5.0 11.0 0.00 0.00 0.00 60 1013.3
20260831164518 85 131 6.0 11.0 0.00 0.00 0.00 56 1013.3
20260831164157 85 143 5.0 10.0 0.00 0.00 0.00 58 1013.4
20260831163129 85 66 7.0 12.0 0.00 0.00 0.00 59 1013.4
20260831163031 85 95 8.0 12.0 0.00 0.00 0.00 59 1013.3
20260831162140 85 95 6.0 12.0 0.00 0.00 0.00 61 1013.5
20260831161532 85 82 9.0 12.0 0.00 0.00 0.00 59 1013.4
20260831161158 86 145 7.0 12.0 0.00 0.00 0.00 59 1013.5
20260831160143 86 111 8.0 14.0 0.00 0.00 0.00 60 1013.5
20260831160030 85 79 8.0 14.0 0.00 0.00 0.00 59 1013.5
20260831155135 86 105 10.0 14.0 0.00 0.00 0.00 59 1013.6
20260831154551 85 96 7.0 13.0 0.00 0.00 0.00 58 1013.5
20260831154130 86 98 8.0 13.0 0.00 0.00 0.00 60 1013.6
20260831153130 86 79 9.0 14.0 0.00 0.00 0.00 59 1013.6
20260831153023 85 99 8.0 14.0 0.00 0.00 0.00 58 1013.5
20260831152131 86 84 11.0 15.0 0.00 0.00 0.00 60 1013.7
20260831151517 85 110 10.0 14.0 0.00 0.00 0.00 57 1013.6
20260831151142 86 94 10.0 14.0 0.00 0.00 0.00 58 1013.7
20260831150133 86 84 9.0 14.0 0.00 0.00 0.00 57 1013.8
20260831150037 86 88 8.0 14.0 0.00 0.00 0.00 58 1013.7
20260831145137 87 88 9.0 12.0 0.00 0.00 0.00 58 1013.7
20260831144508 86 90 9.0 12.0 0.00 0.00 0.00 53 1013.6
20260831144133 87 78 9.0 11.0 0.00 0.00 0.00 54 1013.8
20260831143143 87 77 9.0 13.0 0.00 0.00 0.00 57 1013.7
20260831143008 86 85 9.0 13.0 0.00 0.00 0.00 55 1013.6
20260831142128 87 79 10.0 12.0 0.00 0.00 0.00 55 1013.8
20260831141502 86 102 8.0 14.0 0.00 0.00 0.00 56 1013.6
20260831141141 87 77 10.0 14.0 0.00 0.00 0.00 57 1013.8
20260831140129 87 89 9.0 13.0 0.00 0.00 0.00 54 1013.8
20260831140034 86 91 10.0 13.0 0.00 0.00 0.00 55 1013.6
20260831135136 87 70 9.0 15.0 0.00 0.00 0.00 55 1013.7
20260831134520 86 79 11.0 14.0 0.00 0.00 0.00 56 1013.6
20260831134135 87 91 10.0 14.0 0.00 0.00 0.00 54 1013.8
20260831133140 87 84 9.0 14.0 0.00 0.00 0.00 56 1013.9
20260831133014 87 94 11.0 14.0 0.00 0.00 0.00 53 1013.7
20260831132126 88 25 9.0 13.0 0.00 0.00 0.00 51 1014.0
20260831131514 87 62 7.0 14.0 0.00 0.00 0.00 54 1013.9
20260831131146 88 65 8.0 14.0 0.00 0.00 0.00 53 1014.0
20260831130126 88 84 10.0 15.0 0.00 0.00 0.00 52 1014.1
20260831130008 87 71 9.0 15.0 0.00 0.00 0.00 52 1013.9
20260831125140 88 82 10.0 14.0 0.00 0.00 0.00 51 1014.2
20260831124507 87 104 10.0 16.0 0.00 0.00 0.00 53 1014.1
20260831124133 87 93 12.0 16.0 0.00 0.00 0.00 52 1014.2
20260831123138 89 91 9.0 13.0 0.00 0.00 0.00 53 1014.3
20260831123030 88 58 8.0 12.0 0.00 0.00 0.00 53 1014.2
20260831122125 90 347 5.0 10.0 0.00 0.00 0.00 50 1014.4
20260831121524 90 24 5.0 9.0 0.00 0.00 0.00 51 1014.2
20260831121133 91 52 4.0 8.0 0.00 0.00 0.00 49 1014.4
20260831120137 90 347 4.0 7.0 0.00 0.00 0.00 48 1014.5
20260831120024 90 26 1.0 7.0 0.00 0.00 0.00 47 1014.3
20260831115148 90 342 1.0 8.0 0.00 0.00 0.00 50 1014.5
20260831114514 90 335 2.0 5.0 0.00 0.00 0.00 47 1014.4
20260831114133 91 25 2.0 5.0 0.00 0.00 0.00 47 1014.6
20260831113139 90 205 2.0 5.0 0.00 0.00 0.00 46 1014.6
20260831113011 89 235 2.0 6.0 0.00 0.00 0.00 44 1014.5
20260831112126 90 295 4.0 8.0 0.00 0.00 0.00 46 1014.7
20260831111508 89 203 0.0 5.0 0.00 0.00 0.00 45 1014.6
20260831111128 90 298 3.0 5.0 0.00 0.00 0.00 44 1014.7
20260831110143 90 293 1.0 4.0 0.00 0.00 0.00 49 1014.8
20260831110031 90 1 1.0 4.0 0.00 0.00 0.00 48 1014.6
20260831105125 89 10 1.0 6.0 0.00 0.00 0.00 49 1014.8
20260831104534 89 256 3.0 6.0 0.00 0.00 0.00 46 1014.7
20260831104143 89 203 3.0 6.0 0.00 0.00 0.00 46 1014.8
20260831103126 89 90 0.0 3.0 0.00 0.00 0.00 50 1014.9
20260831103023 88 91 0.0 4.0 0.00 0.00 0.00 51 1014.8
20260831102132 88 360 1.0 4.0 0.00 0.00 0.00 50 1015.0
20260831101516 87 113 1.0 3.0 0.00 0.00 0.00 48 1014.8
20260831101141 88 198 0.0 4.0 0.00 0.00 0.00 47 1015.0
20260831100152 88 101 1.0 5.0 0.00 0.00 0.00 48 1015.1
20260831100012 87 355 2.0 5.0 0.00 0.00 0.00 47 1015.0
20260831095133 87 266 1.0 5.0 0.00 0.00 0.00 51 1015.2
20260831094510 86 315 1.0 4.0 0.00 0.00 0.00 52 1015.2
20260831094140 87 334 1.0 4.0 0.00 0.00 0.00 53 1015.2
20260831093137 85 297 2.0 6.0 0.00 0.00 0.00 55 1015.3
20260831093034 85 312 3.0 7.0 0.00 0.00 0.00 57 1015.3
20260831092133 85 320 1.0 7.0 0.00 0.00 0.00 59 1015.3
20260831091533 84 325 3.0 6.0 0.00 0.00 0.00 58 1015.3
20260831091149 84 342 1.0 7.0 0.00 0.00 0.00 60 1015.3
20260831090124 84 317 2.0 5.0 0.00 0.00 0.00 59 1015.4
20260831090027 83 331 2.0 5.0 0.00 0.00 0.00 59 1015.4
20260831085159 83 276 3.0 5.0 0.00 0.00 0.00 59 1015.4
20260831084527 82 237 2.0 6.0 0.00 0.00 0.00 61 1015.3
20260831084130 82 231 3.0 6.0 0.00 0.00 0.00 61 1015.4
20260831083140 82 305 1.0 6.0 0.00 0.00 0.00 62 1015.3
20260831083018 81 301 1.0 6.0 0.00 0.00 0.00 61 1015.2
20260831082126 81 308 2.0 5.0 0.00 0.00 0.00 63 1015.3
20260831081532 80 328 2.0 6.0 0.00 0.00 0.00 62 1015.2
20260831081141 80 328 1.0 8.0 0.00 0.00 0.00 64 1015.2
20260831080038 79 287 5.0 6.0 0.00 0.00 0.00 63 1015.1
20260831075124 79 259 4.0 6.0 0.00 0.00 0.00 64 1015.2
20260831074530 78 272 4.0 6.0 0.00 0.00 0.00 63 1015.0
20260831074132 78 254 5.0 7.0 0.00 0.00 0.00 63 1015.1
20260831073125 77 257 3.0 5.0 0.00 0.00 0.00 68 1015.0
20260831073030 77 264 3.0 5.0 0.00 0.00 0.00 67 1014.9
20260831072126 76 245 3.0 5.0 0.00 0.00 0.00 71 1015.1
20260831071527 75 251 2.0 6.0 0.00 0.00 0.00 70 1014.8
20260831071131 76 274 4.0 6.0 0.00 0.00 0.00 70 1014.9